Weather Roundup
Issued by NWS Chicago, IL

Home | Current Version | Previous Version | Graphics & Text | Print | Product List | Glossary On
Versions: 1 2 3 4 5 6 7 8 9 10 11 12 13 14 15 16 17 18 19 20 21 22 23 24 25 26 27 28 29 30 31 32 33 34 35 36 37 38 39 40 41 42 43 44 45 46 47 48 49 50
000
NZUS59 KLOT 181758
HRRLOT

CHICAGO AREA WEATHER ROUNDUP
NATIONAL WEATHER SERVICE CHICAGO/ROMEOVILLE IL
100 PM CDT THU SEP 18 2014

NOTE: "FAIR" INDICATES FEW OR NO CLOUDS BELOW 12,000 FEET WITH NO
SIGNIFICANT WEATHER AND/OR OBSTRUCTIONS TO VISIBILITY.

* THESE STATIONS ARE NOT UNDER NWS QUALITY CONTROL. THEY ALSO MAY NOT
  REPORT WEATHER SUCH AS PRECIPITATION OR FOG.

ILZ005-006-012>014-019>023-181900-
NORTHEAST ILLINOIS

CITY           SKY/WX    TMP DP  RH WIND       PRES   REMARKS
OHARE          PTSUNNY   69  54  58 VRB7      30.15R
6HR MIN TEMP:  54; 6HR MAX TEMP:  69;

MIDWAY         MOSUNNY   70  54  56 NE9       30.14S
6HR MIN TEMP:  54; 6HR MAX TEMP:  71;

AURORA         MOSUNNY   69  54  58 E7        30.15F
6HR MIN TEMP:  48; 6HR MAX TEMP:  69;

WAUKEGAN       CLOUDY    61  53  75 NE5       30.16F
6HR MIN TEMP:  52; 6HR MAX TEMP:  61;

DUPAGE AIRPORT MOSUNNY   69  54  58 N8        30.14F
6HR MIN TEMP:  48; 6HR MAX TEMP:  70;

WHEELING       MOSUNNY   66  54  65 N9        30.17S
6HR MIN TEMP:  53; 6HR MAX TEMP:  67;

NORTHERLY IS     N/A     65  57  75 N7          N/A
$$

WIZ051-052-058>065-066-070>072-181900-
SOUTHEAST WISCONSIN

CITY           SKY/WX    TMP DP  RH WIND       PRES   REMARKS
MILWAUKEE      CLOUDY    57  50  77 NE10      30.20R
6HR MIN TEMP:  52; 6HR MAX TEMP:  57;

WAUKESHA       CLOUDY    57  52  82 SE5       30.20S
$$

INZ001>003-010>013-019-020-181900-
NORTHWEST INDIANA

CITY           SKY/WX    TMP DP  RH WIND       PRES   REMARKS
GARY*          MOSUNNY   70  48  46 NE10      30.15S
MICHIGAN CITY* NOT AVBL
RENSSELAER*    NOT AVBL
$$

LMZ740>746-181900-
SOUTHERN LAKE MICHIGAN

STATION/POSITION TIME  SKY/WX   TEMP WIND        PRES    VSBY
                                AIR  DIR/SP/G
                 (UTC)          (F)  (DEG/KT/KT) (MB)    (MI)
HARRISON CRIB    1700            61   10/  8/ 10   N/A
BURNHAM HARBOR   1700            64   10/  8       N/A
CALUMET HARBOR   1700            62   60/  4/  5 1019.7F
BURNS HARBOR     NOT AVBL
MICHIGAN CITY    1700            66  340/  6/  7   N/A
$$

ABBREVIATIONS USED IN REMARKS
   TC - TEMPERATURE IN CELSIUS
  WCI - WIND CHILL INDEX
   HX - HEAT INDEX
  VSB - VISIBILITY
$$



USA.gov is the U.S. government's official web portal to all federal, state and local government web resources and services.